K9JVA Weather Reports


time (UTC)temp
F
wind
direction
speed
knots
gust
knots
rain 1hr
in
rain 24hr
in
rain mn
in
humidity
%
barometer
mb
20260507025939 46 0.0 0.0 0.00 0.00 0.00 82 1014.7
20260507025441 46 0.0 0.0 0.00 0.00 0.00 80 1014.8
20260507024939 47 0.0 0.0 0.00 0.00 0.00 80 1014.7
20260507024440 47 0.0 0.0 0.00 0.00 0.00 80 1014.7
20260507023940 47 0.0 0.0 0.00 0.00 0.00 79 1014.6
20260507023440 47 0.0 0.0 0.00 0.00 0.00 79 1014.6
20260507022940 47 0.0 0.0 0.00 0.00 0.00 79 1014.5
20260507022442 48 0.0 0.0 0.00 0.00 0.00 78 1014.5
20260507022058 48 0.0 0.0 0.00 0.00 0.00 78 1014.5
20260507021340 49 0.0 0.0 0.00 0.00 0.00 78 1014.5
20260507020840 49 0.0 0.0 0.00 0.00 0.00 77 1014.4
20260507020602 49 0.0 0.0 0.00 0.00 0.00 76 1014.4
20260507015842 49 0.0 0.0 0.00 0.00 0.00 76 1014.4
20260507015341 50 0.0 0.0 0.00 0.00 0.00 75 1014.3
20260507014841 50 0.0 0.0 0.00 0.00 0.00 75 1014.4
20260507014341 50 0.0 0.0 0.00 0.00 0.00 75 1014.4
20260507013842 51 0.0 0.0 0.00 0.00 0.00 74 1014.2
20260507013342 51 0.0 0.0 0.00 0.00 0.00 74 1014.2
20260507012741 51 0.0 0.0 0.00 0.00 0.00 72 1013.9
20260507012141 51 0.0 0.0 0.00 0.00 0.00 71 1014.0
20260507011642 52 0.0 0.0 0.00 0.00 0.00 71 1013.8
20260507011626 52 0.0 0.0 0.00 0.00 0.00 70 1013.7
20260507010641 52 0.0 0.0 0.00 0.00 0.00 69 1013.8
20260507010142 53 0.0 0.0 0.00 0.00 0.00 69 1013.8
20260507005642 53 0.0 0.0 0.00 0.00 0.00 68 1013.9
20260507005142 54 0.0 0.0 0.00 0.00 0.00 67 1013.7
20260507004642 54 0.0 0.0 0.00 0.00 0.00 65 1013.7
20260507004242 54 0.0 0.0 0.00 0.00 0.00 65 1013.7
20260507002944 55 0.0 0.0 0.00 0.00 0.00 63 1013.7
20260507002442 55 0.0 0.0 0.00 0.00 0.00 63 1013.6
20260507001944 55 0.0 0.0 0.00 0.00 0.00 63 1013.5
20260507001443 56 0.0 0.0 0.00 0.00 0.00 62 1013.5
20260507000943 56 0.0 0.0 0.00 0.00 0.00 62 1013.5
20260507000443 56 0.0 0.0 0.00 0.00 0.00 62 1013.5
20260506235943 56 0.0 0.0 0.00 0.00 0.00 61 1013.4
20260506235927 56 0.0 0.0 0.00 0.00 0.00 61 1013.3
20260506234943 57 0.0 0.0 0.00 0.00 0.00 61 1013.1
20260506234612 57 0.0 0.0 0.00 0.00 0.00 61 1013.1
20260506233843 57 0.0 0.0 0.00 0.00 0.00 61 1013.2
20260506233345 57 0.0 0.0 0.00 0.00 0.00 61 1013.2
20260506232844 58 0.0 0.0 0.00 0.00 0.00 60 1013.1
20260506232603 58 0.0 0.0 0.00 0.00 0.00 58 1013.2
20260506231844 58 0.0 0.0 0.00 0.00 0.00 58 1012.9
20260506231345 58 0.0 0.0 0.00 0.00 0.00 58 1012.8
20260506231104 59 0.0 0.0 0.00 0.00 0.00 58 1012.7
20260506230345 59 0.0 0.0 0.00 0.00 0.00 58 1012.8
20260506225845 59 0.0 0.0 0.00 0.00 0.00 57 1013.0
20260506225244 59 0.0 0.0 0.00 0.00 0.00 58 1013.0
20260506224643 59 0.0 0.0 0.00 0.00 0.00 60 1013.0
20260506224147 60 0.0 0.0 0.00 0.00 0.00 58 1013.0
20260506223645 60 0.0 0.0 0.00 0.00 0.00 58 1013.1
20260506223146 60 0.0 0.0 0.00 0.00 0.00 57 1013.2
20260506222645 60 0.0 0.0 0.00 0.00 0.00 56 1013.2
20260506222413 60 0.0 0.0 0.00 0.00 0.00 57 1013.3
20260506221645 60 0.0 0.0 0.00 0.00 0.00 57 1013.3
20260506221145 60 0.0 0.0 0.00 0.00 0.00 56 1013.3
20260506220908 60 0.0 0.0 0.00 0.00 0.00 58 1013.5
20260506220533 60 0.0 0.0 0.00 0.00 0.00 57 1013.4
20260506215547 60 0.0 0.0 0.00 0.00 0.00 57 1013.3
20260506215045 60 0.0 0.0 0.00 0.00 0.00 57 1013.4
20260506214546 61 0.0 0.0 0.00 0.00 0.00 58 1013.3
20260506214046 61 0.0 0.0 0.00 0.00 0.00 57 1013.3
20260506213546 61 0.0 0.0 0.00 0.00 0.00 56 1013.2
20260506213046 61 0.0 0.0 0.00 0.00 0.00 58 1013.2
20260506213029 61 0.0 0.0 0.00 0.00 0.00 57 1013.2
20260506212317 61 0.0 0.0 0.00 0.00 0.00 58 1013.1
20260506211546 61 0.0 0.0 0.00 0.00 0.00 56 1013.0
20260506210948 62 0.0 0.0 0.00 0.00 0.00 55 1012.9
20260506210447 62 0.0 0.0 0.00 0.00 0.00 55 1012.8
20260506210149 62 0.0 0.0 0.00 0.00 0.00 53 1012.8
20260506204948 62 0.0 0.0 0.00 0.00 0.00 56 1012.7
20260506204447 62 0.0 0.0 0.00 0.00 0.00 54 1012.8
20260506203948 62 0.0 0.0 0.00 0.00 0.00 55 1012.8
20260506203711 62 0.0 0.0 0.00 0.00 0.00 54 1013.0
20260506202949 62 0.0 0.0 0.00 0.00 0.00 54 1012.9
20260506202447 62 0.0 0.0 0.00 0.00 0.00 55 1013.0
20260506201947 62 0.0 0.0 0.00 0.00 0.00 54 1013.0
20260506201349 62 0.0 0.0 0.00 0.00 0.00 55 1012.9
20260506200848 62 0.0 0.0 0.00 0.00 0.00 55 1013.0
20260506200348 62 0.0 0.0 0.00 0.00 0.00 54 1012.8
20260506200114 63 0.0 0.0 0.00 0.00 0.00 56 1013.0
20260506195348 63 0.0 0.0 0.00 0.00 0.00 54 1013.0
20260506194848 63 0.0 0.0 0.00 0.00 0.00 55 1013.0
20260506194348 63 0.0 0.0 0.00 0.00 0.00 54 1013.0
20260506193849 63 0.0 0.0 0.00 0.00 0.00 55 1012.9
20260506193349 64 0.0 0.0 0.00 0.00 0.00 54 1012.8
20260506192851 64 0.0 0.0 0.00 0.00 0.00 54 1012.7
20260506192249 64 0.0 0.0 0.00 0.00 0.00 56 1012.5
20260506191750 65 0.0 0.0 0.00 0.00 0.00 54 1012.6
20260506191248 65 0.0 0.0 0.00 0.00 0.00 55 1012.5
20260506190749 65 0.0 0.0 0.00 0.00 0.00 54 1012.5
20260506190249 65 0.0 0.0 0.00 0.00 0.00 55 1012.6
20260506185749 66 0.0 0.0 0.00 0.00 0.00 54 1012.4
20260506185249 66 0.0 0.0 0.00 0.00 0.00 53 1012.5
20260506184751 66 0.0 0.0 0.00 0.00 0.00 53 1012.5
20260506184515 66 0.0 0.0 0.00 0.00 0.00 51 1012.4
20260506183751 67 0.0 0.0 0.00 0.00 0.00 49 1012.5
20260506183150 69 0.0 0.0 0.00 0.00 0.00 51 1012.4
20260506182550 68 0.0 0.0 0.00 0.00 0.00 49 1012.5
20260506182532 68 0.0 0.0 0.00 0.00 0.00 55 1012.5
20260506181813 67 0.0 0.0 0.00 0.00 0.00 54 1012.6
20260506181050 67 0.0 0.0 0.00 0.00 0.00 56 1012.6
20260506180551 65 0.0 0.0 0.00 0.00 0.00 55 1012.8
20260506180050 65 0.0 0.0 0.00 0.00 0.00 57 1012.8
20260506175550 66 0.0 0.0 0.00 0.00 0.00 55 1012.9
20260506175535 66 0.0 0.0 0.00 0.00 0.00 57 1013.0
20260506174352 66 0.0 0.0 0.00 0.00 0.00 57 1013.1
20260506173751 65 0.0 0.0 0.00 0.00 0.00 57 1013.0
20260506173514 65 0.0 0.0 0.00 0.00 0.00 55 1013.2
20260506172751 65 0.0 0.0 0.00 0.00 0.00 56 1013.2
20260506172251 65 0.0 0.0 0.00 0.00 0.00 58 1013.2
20260506171753 64 0.0 0.0 0.00 0.00 0.00 57 1013.3
20260506171252 64 0.0 0.0 0.00 0.00 0.00 58 1013.3
20260506170751 63 0.0 0.0 0.00 0.00 0.00 57 1013.4
20260506170252 64 0.0 0.0 0.00 0.00 0.00 58 1013.4
20260506165752 64 0.0 0.0 0.00 0.00 0.00 58 1013.4
20260506165152 64 0.0 0.0 0.00 0.00 0.00 58 1013.4
20260506164552 63 0.0 0.0 0.00 0.00 0.00 60 1013.4
20260506164317 63 0.0 0.0 0.00 0.00 0.00 58 1013.4
20260506163820 64 0.0 0.0 0.00 0.00 0.00 61 1013.4
20260506163310 63 0.0 0.0 0.00 0.00 0.00 58 1013.3
20260506162552 62 0.0 0.0 0.00 0.00 0.00 63 1013.3
20260506162054 61 0.0 0.0 0.00 0.00 0.00 57 1013.5
20260506161552 61 0.0 0.0 0.00 0.00 0.00 62 1013.5
20260506161054 60 0.0 0.0 0.00 0.00 0.00 61 1013.5
20260506160553 61 0.0 0.0 0.00 0.00 0.00 61 1013.3
20260506155953 60 0.0 0.0 0.00 0.00 0.00 64 1013.3
20260506155453 60 0.0 0.0 0.00 0.00 0.00 63 1013.3
20260506154954 60 0.0 0.0 0.00 0.00 0.00 65 1013.3
20260506154452 60 0.0 0.0 0.00 0.00 0.00 65 1013.2
20260506153953 59 0.0 0.0 0.00 0.00 0.00 65 1013.2
20260506153453 58 0.0 0.0 0.00 0.00 0.00 68 1013.4
20260506152954 57 0.0 0.0 0.00 0.00 0.00 68 1013.5
20260506152454 57 0.0 0.0 0.00 0.00 0.00 68 1013.6
20260506152218 57 0.0 0.0 0.00 0.00 0.00 70 1013.5
20260506151454 57 0.0 0.0 0.00 0.00 0.00 68 1013.4
20260506150854 56 0.0 0.0 0.00 0.00 0.00 72 1013.1
20260506150354 55 0.0 0.0 0.00 0.00 0.00 72 1013.2
20260506145854 55 0.0 0.0 0.00 0.00 0.00 72 1013.2
20260506145354 55 0.0 0.0 0.00 0.00 0.00 74 1012.9
20260506144854 55 0.0 0.0 0.00 0.00 0.00 74 1012.7
20260506144354 55 0.0 0.0 0.00 0.00 0.00 74 1012.6
20260506143854 54 0.0 0.0 0.00 0.00 0.00 75 1012.6
20260506143355 53 0.0 0.0 0.00 0.00 0.00 76 1012.6
20260506142855 53 0.0 0.0 0.00 0.00 0.00 77 1012.5
20260506142355 53 0.0 0.0 0.00 0.00 0.00 78 1012.7
20260506141754 54 0.0 0.0 0.00 0.00 0.00 77 1012.5
20260506141157 53 0.0 0.0 0.00 0.00 0.00 79 1012.4
20260506140655 53 0.0 0.0 0.00 0.00 0.00 80 1012.4
20260506140155 52 0.0 0.0 0.00 0.00 0.00 80 1012.4
20260506135655 52 0.0 0.0 0.00 0.00 0.00 82 1012.6
20260506135416 52 0.0 0.0 0.00 0.00 0.00 82 1012.5
20260506134655 51 0.0 0.0 0.00 0.00 0.00 83 1012.4
20260506134156 51 0.0 0.0 0.00 0.00 0.00 83 1012.5
20260506134140 51 0.0 0.0 0.00 0.00 0.00 83 1012.3
20260506133156 51 0.0 0.0 0.00 0.00 0.00 84 1012.4
20260506132655 51 0.0 0.0 0.00 0.00 0.00 84 1012.3
20260506132058 51 0.0 0.0 0.00 0.00 0.00 85 1011.9
20260506131556 50 0.0 0.0 0.00 0.00 0.00 85 1011.7
20260506131057 50 0.0 0.0 0.00 0.00 0.00 85 1011.7
20260506130555 49 0.0 0.0 0.00 0.00 0.00 86 1011.9
20260506130056 49 0.0 0.0 0.00 0.00 0.00 89 1011.7
20260506125556 48 0.0 0.0 0.00 0.00 0.00 87 1011.9
20260506125056 48 0.0 0.0 0.00 0.00 0.00 87 1012.0
20260506124556 48 0.0 0.0 0.00 0.00 0.00 89 1012.0
20260506124057 48 0.0 0.0 0.00 0.00 0.00 89 1011.9
20260506123458 48 0.0 0.0 0.00 0.00 0.00 89 1011.9
20260506122956 48 0.0 0.0 0.00 0.00 0.00 90 1012.0
20260506122458 47 0.0 0.0 0.00 0.00 0.00 91 1011.5
20260506121956 47 0.0 0.0 0.00 0.00 0.00 91 1011.5
20260506121456 47 0.0 0.0 0.00 0.00 0.00 91 1011.7
20260506120958 47 0.0 0.0 0.00 0.00 0.00 92 1011.5
20260506120942 47 0.0 0.0 0.00 0.00 0.00 92 1011.2
20260506115957 46 0.0 0.0 0.00 0.00 0.00 92 1011.0
20260506115457 46 0.0 0.0 0.00 0.00 0.00 92 1010.9
20260506114957 46 0.0 0.0 0.00 0.00 0.00 93 1010.7
20260506114718 46 0.0 0.0 0.00 0.00 0.00 93 1010.6
20260506113858 45 0.0 0.0 0.00 0.00 0.00 94 1010.5
20260506113358 45 0.0 0.0 0.00 0.00 0.00 94 1010.3
20260506112858 45 0.0 0.0 0.00 0.00 0.00 94 1010.6
20260506112358 45 0.0 0.0 0.00 0.00 0.00 94 1010.6
20260506111859 45 0.0 0.0 0.00 0.00 0.00 94 1010.0
20260506111359 45 0.0 0.0 0.00 0.00 0.00 96 1010.2
20260506110859 45 0.0 0.0 0.00 0.00 0.00 96 1010.1
20260506110358 45 0.0 0.0 0.00 0.00 0.00 96 1010.3
20260506105858 45 0.0 0.0 0.00 0.00 0.00 96 1010.2
20260506105620 45 0.0 0.0 0.00 0.00 0.00 96 1009.7
20260506104758 45 0.0 0.0 0.00 0.00 0.00 96 1009.5
20260506104159 45 0.0 0.0 0.00 0.00 0.00 96 1009.5
20260506103925 45 0.0 0.0 0.00 0.00 0.00 96 1009.8
20260506103159 45 0.0 0.0 0.00 0.00 0.00 97 1009.7
20260506102700 45 0.0 0.0 0.00 0.00 0.00 97 1009.7
20260506102159 45 0.0 0.0 0.00 0.00 0.00 97 1009.9
20260506101700 45 0.0 0.0 0.00 0.00 0.00 97 1009.7
20260506101425 45 0.0 0.0 0.00 0.00 0.00 97 1009.3
20260506100701 45 0.0 0.0 0.00 0.00 0.00 97 1009.0
20260506100200 45 0.0 0.0 0.00 0.00 0.00 97 1009.2
20260506095701 45 0.0 0.0 0.00 0.00 0.00 97 1009.0
20260506095100 45 0.0 0.0 0.00 0.00 0.00 97 1008.9
20260506094600 45 0.0 0.0 0.00 0.00 0.00 97 1009.0
20260506094316 45 0.0 0.0 0.00 0.00 0.00 96 1009.1
20260506093600 45 0.0 0.0 0.00 0.00 0.00 97 1009.4
20260506093100 45 0.0 0.0 0.00 0.00 0.00 97 1009.3
20260506092601 46 0.0 0.0 0.00 0.00 0.00 97 1009.1
20260506092100 45 0.0 0.0 0.00 0.00 0.00 97 1008.8
20260506091600 45 0.0 0.0 0.00 0.00 0.00 97 1008.6
20260506091102 46 0.0 0.0 0.00 0.00 0.00 97 1008.5
20260506090500 46 0.0 0.0 0.00 0.00 0.00 97 1008.6
20260506090001 46 0.0 0.0 0.00 0.00 0.00 97 1008.6
20260506085710 46 0.0 0.0 0.00 0.00 0.00 97 1008.5
20260506084502 46 0.0 0.0 0.00 0.00 0.00 97 1008.9
20260506084002 46 0.0 0.0 0.00 0.00 0.00 97 1008.8
20260506083501 46 0.0 0.0 0.00 0.00 0.00 97 1008.7
20260506083227 46 0.0 0.0 0.00 0.00 0.00 97 1008.6
20260506082502 47 0.0 0.0 0.00 0.00 0.00 97 1008.3
20260506082002 47 0.0 0.0 0.00 0.00 0.00 97 1008.3
20260506081502 47 0.0 0.0 0.00 0.00 0.00 97 1008.2
20260506080903 47 0.0 0.0 0.00 0.00 0.00 97 1008.2
20260506080402 47 0.0 0.0 0.00 0.00 0.00 97 1008.3
20260506073402 47 0.0 0.0 0.00 0.00 0.00 97 1007.9
20260506072903 48 0.0 0.0 0.00 0.00 0.00 97 1007.9
20260506072403 48 0.0 0.0 0.00 0.00 0.00 97 1008.2
20260506072028 48 0.0 0.0 0.00 0.00 0.00 97 1008.2
20260506071304 48 0.0 0.0 0.00 0.00 0.00 97 1008.0
20260506070802 48 0.0 0.0 0.00 0.00 0.00 97 1007.9
20260506070302 48 0.0 0.0 0.00 0.00 0.00 97 1007.8
20260506062205 49 0.0 0.0 0.00 0.00 0.00 97 1007.1
20260506061703 50 0.0 0.0 0.00 0.00 0.00 96 1007.0
20260506061203 50 0.0 0.0 0.00 0.00 0.00 96 1007.0
20260506060704 51 0.0 0.0 0.00 0.00 0.00 96 1007.2
20260506060426 51 0.0 0.0 0.00 0.00 0.00 96 1007.3
20260506051229 57 0.0 0.0 0.00 0.00 0.00 96 1007.0
20260506050506 58 0.0 0.0 0.00 0.00 0.00 97 1006.7
20260506050457 58 0.0 0.0 0.00 0.00 0.00 97 1006.5
20260506045005 59 0.0 0.0 0.00 0.00 0.00 97 1006.6
20260506044506 59 0.0 0.0 0.00 0.00 0.00 96 1006.6
20260506043906 59 0.0 0.0 0.00 0.00 0.00 96 1006.6
20260506043407 59 0.0 0.0 0.00 0.00 0.00 96 1006.6
20260506042906 59 0.0 0.0 0.00 0.00 0.00 96 1006.7
20260506042405 59 0.0 0.0 0.00 0.00 0.00 96 1006.8
20260506041905 59 0.0 0.0 0.00 0.00 0.00 96 1006.8
20260506041406 59 0.0 0.0 0.00 0.00 0.00 96 1006.6
20260506040906 59 0.0 0.0 0.00 0.00 0.00 96 1006.6
20260506040407 59 0.0 0.0 0.00 0.00 0.00 96 1006.4
20260506035907 59 0.0 0.0 0.00 0.00 0.00 96 1006.4
20260506035406 59 0.0 0.0 0.00 0.00 0.00 96 1006.4
20260506035029 59 0.0 0.0 0.00 0.00 0.00 96 1006.6
20260506034309 59 0.0 0.0 0.00 0.00 0.00 96 1006.6
20260506033807 59 0.0 0.0 0.00 0.00 0.00 96 1006.5
20260506033307 59 0.0 0.0 0.00 0.00 0.00 96 1006.6
20260506033025 59 0.0 0.0 0.00 0.00 0.00 96 1006.6
20260506032307 59 0.0 0.0 0.00 0.00 0.00 96 1006.7
20260506031808 59 0.0 0.0 0.00 0.00 0.00 96 1006.7
20260506031309 59 0.0 0.0 0.00 0.00 0.00 96 1006.6
20260506030809 59 0.0 0.0 0.00 0.00 0.00 96 1006.8
20260506030308 59 0.0 0.0 0.00 0.00 0.00 96 1007.0